{"data":{"norad_id":49503,"epoch":"2026-09-19T03:39:08.383104Z","epoch_age_seconds":223761,"freshness":"STALE","line1":"1 49503U 21113A   26262.15218036 -.00000137  00000+0  00000+0 0  9993","line2":"2 49503  62.8249 198.9468 6403389 272.3876  20.9742  2.00584614 35289","mean_motion":2.00584614,"eccentricity":0.6403389,"inclination_deg":62.8249,"raan_deg":198.9468,"arg_perigee_deg":272.3876,"mean_anomaly_deg":20.9742,"bstar":0,"rev_number":3528,"period_min":717.90152359343,"perigee_km":3173.9198415588,"apogee_km":37186.79235216,"semimajor_km":26558.493096859,"source":"CELESTRAK","updated_at":"2026-09-21T09:00:08.124591Z"}}